Плауэн

Германия     50°29′48″N   12°08′36″E
темп.,
°C
ветер,
м/с
пор.,
м/с
влажн.,
%
обл.,
%
осадки,
мм/ч
давл.,
гПа
погр.,
м
19 апреля, пн
пн1923:00+4ююв019174 0.0 102110
02:00+3юв119165 0.0 102011
05:00+3вюв0191100 0.0 102010
08:00+5св128796 0.0 1020126
11:00+8ссв337179 0.1 10191069
14:00+9св336698 0.2 10191189
17:00+9ссв3469100 0.1 1018749
20:00+7ссв228493 0.1 101832
20 апреля, вт
вт2023:00+5сз0189100 0.0 101910
02:00+6сз118892 0.0 101828
05:00+5зюз119586 0.1 101712
08:00+6сз129497 0.1 1018190
11:00+8ссз228889 0.1 1017441
14:00+11с337044 0.8 10161032
17:00+10ссз337435 0.3 1015517
20:00+9с227457 0.4 101512
21 апреля, ср
ср2123:00+5юз11845 0.0 101610
02:00+4ююз22905 0.0 101611
05:00+3ююз11923 0.0 101610
08:00+7юз12843 0.0 1016131
11:00+11сз47555 0.0 10151712
14:00+13сз67449 0.0 10142150
17:00+13ссз574876 0.0 10131834
20:00+8ссз5977100 0.1 1015453
22 апреля, чт
чт2223:00+5ссв278496 0.0 1018581
02:00+3с368084 0.1 1018430
05:00−1зсз2496100 0.0 1019128
08:00+1зсз4976100 0.0 1020655
11:00+4сз685698 0.0 10191317
14:00+6сз7955100 0.1 10191614
17:00+7сз8105795 0.4 10181890
20:00+4зсз5107341 0.6 1020451
23 апреля, пт
пт2323:000з36905 0.1 1022114
02:00−1з38925 0.1 1023198
05:00−2з259653 0.0 1024117
08:00+1зсз348594 0.0 1025508
11:00+5зсз346243 0.0 10241100
14:00+9сз45475 0.0 10231571
17:00+10сз674848 0.0 10221754
20:00+5зсз237213 0.0 102343